Date String (YYYY-MM-DD hh:mm:ss) UTC,Instrument flags,absolute air pressure of the measurement (hPa),sample flow rate (lpm),inlet stack bypass flow (lpm),air temperature of the measurement (°C),ambient temperature measured by the external sensor (°C),aerosol sample conditioner tube jacket temperature (°C),OPC LED temperature (°C),internal box temperature (°C),relative humidity of the measurement (%),span deviation,mass concentration of particles derived from Lorenz-Mie calculation of OPC scattering (μg/m³),mass concentration of particles derived from Lorenz-Mie calculation of OPC scattering (μg/m³),mass concentration of particles derived from Lorenz-Mie calculation of OPC scattering (μg/m³)
DateTimeUTC,F1_M11,P_M11,Q1_M11,Q2_M11,T1_M11,T2_M11,T3_M11,T4_M11,T5_M11,U1_M11,ZSPAN_M11,X0_M11,X2_M11,X1_M11
2023-07-22 11:00:00,SystemResetWarning,0835.5,5.01,000.00,029.9,028.4,000.0,038.4,031.4,21.3,0000.0,0007.49,0004.26,0003.90
2023-07-22 11:01:00,SystemResetWarning,0835.5,5.00,000.00,029.9,028.4,000.0,038.4,031.4,21.0,0000.0,0007.72,0004.28,0003.92
2023-07-22 11:02:00,SystemResetWarning,0835.5,5.00,000.00,029.9,028.4,000.0,038.4,031.4,21.1,0000.0,0007.92,0004.30,0003.94
2023-07-22 11:03:00,SystemResetWarning,0835.6,5.01,000.00,029.9,028.4,000.0,038.4,031.4,21.2,0000.0,0007.86,0004.30,0003.96
2023-07-22 11:04:00,SystemResetWarning,0835.5,5.00,000.00,029.9,028.5,000.0,038.4,031.4,21.8,0000.0,0007.45,0004.32,0003.98
2023-07-22 11:05:00,SystemResetWarning,0835.6,5.00,000.00,029.9,028.5,000.0,038.4,031.4,21.8,0000.0,0007.46,0004.32,0004.00
2023-07-22 11:06:00,SystemResetWarning,0835.7,5.00,000.00,029.9,028.5,000.0,038.4,031.4,22.4,0000.0,0007.47,0004.31,0004.00
2023-07-22 11:07:00,SystemResetWarning,0835.5,5.01,000.00,029.9,028.5,000.0,038.4,031.4,22.9,0000.0,0007.37,0004.29,0004.00
2023-07-22 11:08:00,SystemResetWarning,0835.5,5.00,000.00,029.9,028.5,000.0,038.4,031.4,22.6,0000.0,0007.43,0004.28,0003.98
2023-07-22 11:09:00,SystemResetWarning,0835.6,5.00,000.00,029.9,028.5,000.0,038.4,031.4,22.1,0000.0,0007.34,0004.24,0003.96
2023-07-22 11:10:00,SystemResetWarning,0835.6,5.00,000.00,029.9,028.5,000.0,038.4,031.4,23.1,0000.0,0007.34,0004.23,0003.95
2023-07-22 11:11:00,SystemResetWarning,0835.6,5.01,000.00,030.0,028.5,000.0,038.5,031.4,22.2,0000.0,0007.26,0004.22,0003.94
2023-07-22 11:12:00,SystemResetWarning,0835.6,5.00,000.00,030.0,028.5,000.0,038.5,031.4,21.4,0000.0,0006.95,0004.21,0003.93
2023-07-22 11:13:00,SystemResetWarning,0835.6,5.00,000.00,030.0,028.5,000.0,038.5,031.4,21.5,0000.0,0006.70,0004.21,0003.92
2023-07-22 11:14:00,SystemResetWarning,0835.6,5.00,000.00,030.0,028.5,000.0,038.5,031.4,21.1,0000.0,0006.75,0004.21,0003.90
2023-07-22 11:15:00,SystemResetWarning,0835.6,5.00,000.00,030.0,028.5,000.0,038.5,031.4,20.9,0000.0,0006.71,0004.21,0003.88
2023-07-22 11:16:00,SystemResetWarning,0835.5,4.99,000.00,030.0,028.5,000.0,038.5,031.4,21.3,0000.0,0006.54,0004.22,0003.86
2023-07-22 11:17:00,SystemResetWarning,0835.5,5.00,000.00,030.0,028.5,000.0,038.5,031.5,21.3,0000.0,0006.36,0004.20,0003.84
2023-07-22 11:18:00,SystemResetWarning,0835.6,5.00,000.00,030.0,028.5,000.0,038.5,031.5,21.2,0000.0,0006.37,0004.19,0003.83
2023-07-22 11:19:00,SystemResetWarning,0835.6,5.00,000.00,030.0,028.5,000.0,038.5,031.4,21.8,0000.0,0006.34,0004.18,0003.82
2023-07-22 11:20:00,SystemResetWarning,0835.6,5.00,000.00,030.0,028.5,000.0,038.5,031.4,22.3,0000.0,0006.37,0004.19,0003.81
2023-07-22 11:21:00,SystemResetWarning,0835.6,5.00,000.00,030.0,028.5,000.0,038.5,031.5,21.4,0000.0,0006.43,0004.20,0003.81
2023-07-22 11:22:00,SystemResetWarning,0835.6,5.01,000.00,030.0,028.5,000.0,038.5,031.4,21.3,0000.0,0006.50,0004.19,0003.81
2023-07-22 11:23:00,SystemResetWarning,0835.6,5.01,000.00,030.0,028.5,000.0,038.5,031.5,21.2,0000.0,0006.48,0004.15,0003.79
2023-07-22 11:24:00,SystemResetWarning,0835.6,4.98,000.00,030.0,028.5,000.0,038.5,031.5,21.1,0000.0,0006.55,0004.16,0003.79
2023-07-22 11:25:00,SystemResetWarning,0835.6,4.99,000.00,030.0,028.5,000.0,038.5,031.5,21.3,0000.0,0006.62,0004.18,0003.78
2023-07-22 11:26:00,SystemResetWarning,0835.6,5.01,000.00,030.0,028.5,000.0,038.5,031.5,20.9,0000.0,0006.63,0004.19,0003.78
2023-07-22 11:27:00,SystemResetWarning,0835.6,5.00,000.00,030.0,028.5,000.0,038.5,031.5,20.7,0000.0,0006.54,0004.16,0003.77
2023-07-22 11:28:00,SystemResetWarning,0835.6,5.01,000.00,030.0,028.5,000.0,038.5,031.5,20.6,0000.0,0007.28,0004.14,0003.75
2023-07-22 11:29:00,SystemResetWarning,0835.6,5.00,000.00,030.0,028.5,000.0,038.5,031.5,20.6,0000.0,0007.61,0004.13,0003.74
2023-07-22 11:30:00,SystemResetWarning,0835.6,4.99,000.00,030.0,028.5,000.0,038.5,031.5,20.6,0000.0,0007.64,0004.14,0003.73
2023-07-22 11:31:00,SystemResetWarning,0835.6,4.99,000.00,030.0,028.5,000.0,038.5,031.5,20.4,0000.0,0007.73,0004.15,0003.71
2023-07-22 11:32:00,SystemResetWarning,0835.6,5.00,000.00,030.0,028.5,000.0,038.5,031.5,20.6,0000.0,0007.70,0004.12,0003.69
2023-07-22 11:33:00,SystemResetWarning,0835.6,5.00,000.00,030.0,028.5,000.0,038.5,031.5,20.7,0000.0,0007.86,0004.15,0003.69
2023-07-22 11:34:00,SystemResetWarning,0835.6,5.00,000.00,030.0,028.5,000.0,038.5,031.5,20.6,0000.0,0008.12,0004.19,0003.69
2023-07-22 11:35:00,SystemResetWarning,0835.6,5.00,000.00,030.0,028.6,000.0,038.5,031.5,20.4,0000.0,0008.26,0004.18,0003.68
2023-07-22 11:36:00,SystemResetWarning,0835.6,5.00,000.00,030.0,028.6,000.0,038.5,031.5,20.7,0000.0,0008.22,0004.15,0003.68
2023-07-22 11:37:00,SystemResetWarning,0835.6,5.00,000.00,030.0,028.6,000.0,038.6,031.5,20.7,0000.0,0008.22,0004.14,0003.67
2023-07-22 11:38:00,SystemResetWarning,0835.6,5.00,000.00,030.1,028.6,000.0,038.6,031.5,20.8,0000.0,0008.30,0004.16,0003.67
2023-07-22 11:39:00,SystemResetWarning,0835.7,5.00,000.00,030.1,028.6,000.0,038.6,031.5,20.7,0000.0,0007.84,0004.18,0003.69
2023-07-22 11:40:00,SystemResetWarning,0835.6,5.00,000.00,030.1,028.6,000.0,038.6,031.5,20.5,0000.0,0007.59,0004.19,0003.69
2023-07-22 11:41:00,SystemResetWarning,0835.6,4.99,000.00,030.1,028.6,000.0,038.6,031.5,20.4,0000.0,0007.47,0004.15,0003.70
2023-07-22 11:42:00,SystemResetWarning,0835.6,5.00,000.00,030.1,028.6,000.0,038.6,031.5,20.4,0000.0,0007.29,0004.10,0003.69
2023-07-22 11:43:00,SystemResetWarning,0835.6,5.00,000.00,030.1,028.6,000.0,038.6,031.5,20.8,0000.0,0007.30,0004.09,0003.69
2023-07-22 11:44:00,SystemResetWarning,0835.6,5.00,000.00,030.1,028.6,000.0,038.6,031.5,20.7,0000.0,0007.07,0004.04,0003.69
2023-07-22 11:45:00,SystemResetWarning,0835.6,5.01,000.00,030.1,028.6,000.0,038.6,031.5,20.5,0000.0,0006.47,0003.99,0003.67
2023-07-22 11:46:00,SystemResetWarning,0835.6,5.00,000.00,030.1,028.6,000.0,038.6,031.5,20.3,0000.0,0006.11,0003.98,0003.67
2023-07-22 11:47:00,SystemResetWarning,0835.6,4.99,000.00,030.1,028.6,000.0,038.6,031.5,20.8,0000.0,0006.11,0003.95,0003.66
2023-07-22 11:48:00,SystemResetWarning,0835.6,5.00,000.00,030.1,028.6,000.0,038.6,031.5,20.5,0000.0,0006.02,0003.93,0003.66
2023-07-22 11:49:00,SystemResetWarning,0835.8,5.01,000.00,030.1,028.6,000.0,038.6,031.5,20.3,0000.0,0006.31,0003.92,0003.66
2023-07-22 11:50:00,SystemResetWarning,0835.6,5.00,000.00,030.1,028.6,000.0,038.6,031.5,20.0,0000.0,0006.76,0003.91,0003.66
2023-07-22 11:51:00,SystemResetWarning,0835.7,5.00,000.00,030.1,028.6,000.0,038.6,031.5,19.9,0000.0,0006.70,0003.89,0003.66
2023-07-22 11:52:00,SystemResetWarning,0835.8,4.99,000.00,030.1,028.6,000.0,038.6,031.6,20.0,0000.0,0006.80,0003.89,0003.65
2023-07-22 11:53:00,SystemResetWarning,0835.9,4.99,000.00,030.1,028.6,000.0,038.6,031.6,21.2,0000.0,0007.08,0003.93,0003.66
2023-07-22 11:54:00,SystemResetWarning,0835.6,5.00,000.00,030.1,028.7,000.0,038.6,031.6,20.4,0000.0,0007.10,0003.95,0003.66
2023-07-22 11:55:00,SystemResetWarning,0835.6,5.02,000.00,030.1,028.7,000.0,038.6,031.6,21.6,0000.0,0007.12,0003.99,0003.67
2023-07-22 11:56:00,SystemResetWarning,0835.6,4.99,000.00,030.1,028.7,000.0,038.6,031.6,22.3,0000.0,0007.23,0004.04,0003.68
2023-07-22 11:57:00,SystemResetWarning,0835.6,4.99,000.00,030.1,028.7,000.0,038.6,031.6,21.4,0000.0,0007.25,0004.06,0003.69
2023-07-22 11:58:00,SystemResetWarning,0835.6,4.99,000.00,030.1,028.7,000.0,038.6,031.6,20.6,0000.0,0007.27,0004.09,0003.70
2023-07-22 11:59:00,SystemResetWarning,0835.6,5.00,000.00,030.1,028.7,000.0,038.6,031.6,20.3,0000.0,0007.32,0004.12,0003.72
